Location: Newark
(7.1028°S, 35.3258°W)
Time: 17:32:50
(UTC+00:00)

Explorer 7 - All Passes

Search period start: 19 February 2020 00:00
Search period end: 29 February 2020 00:00
Orbit: 485 x 679 km, 50.3° (Epoch: 18 February)

Date Brightness Start Highest point End Pass type
(mag) Time Alt. Az. Time Alt. Az. Time Alt. Az.
19 Feb - 00:39:28 10° NNW 00:43:06 50° NE 00:46:51 10° SE night (unlit)
19 Feb - 10:58:26 10° S 11:02:09 21° SE 11:05:51 10° E daylight
19 Feb - 12:38:16 10° WSW 12:42:39 33° NW 12:46:59 10° N daylight
20 Feb - 00:44:14 10° NW 00:47:57 65° SW 00:51:48 10° SSE night (unlit)
20 Feb - 11:02:30 10° SSW 11:07:05 39° SE 11:11:39 10° ENE daylight
20 Feb - 12:44:19 10° W 12:47:30 17° NW 12:50:38 10° NNW daylight
20 Feb - 23:10:55 10° NNE 23:12:37 13° NE 23:14:22 10° E night (unlit)
21 Feb - 00:49:36 10° WNW 00:52:52 28° SW 00:56:13 10° S night (unlit)
21 Feb - 11:07:04 10° SSW 11:11:58 78° SE 11:16:51 10° NE daylight
21 Feb - 23:14:14 10° N 23:17:27 28° NE 23:20:44 10° ESE night (unlit)
22 Feb - 00:55:57 10° W 00:57:50 13° SW 00:59:44 10° SSW night (unlit)
22 Feb - 09:33:46 10° SSE 09:36:13 14° SE 09:38:41 10° E daylight
22 Feb - 11:12:03 10° SW 11:16:49 52° NW 11:21:34 10° NNE daylight
22 Feb - 23:18:36 10° NNW 23:22:17 68° NE 23:26:04 10° SE night (unlit)
23 Feb - 09:37:10 10° S 09:41:11 25° SE 09:45:14 10° ENE daylight
23 Feb - 11:17:33 10° WSW 11:21:40 27° NW 11:25:46 10° N daylight
23 Feb - 23:23:33 10° NW 23:27:10 48° SW 23:30:50 10° SSE night (unlit)
24 Feb - 09:41:25 10° SSW 09:46:06 48° SE 09:50:50 10° NE daylight
24 Feb - 11:24:00 10° W 11:26:31 14° NW 11:29:02 10° NNW daylight
24 Feb - 21:49:24 10° NNE 21:51:48 16° NE 21:54:13 10° E visible
24 Feb - 23:29:09 10° WNW 23:32:04 21° SW 23:35:03 10° S night (unlit)
25 Feb - 09:46:06 10° SW 09:50:58 85° NW 09:55:52 10° NE daylight
25 Feb - 21:53:11 10° NNW 21:56:39 36° NE 22:00:07 10° ESE visible
25 Feb - 23:36:37 10° SW 23:37:03 10° SW 23:37:29 10° SW night (unlit)
26 Feb - 08:12:17 10° S 08:15:17 16° SE 08:18:20 10° E daylight
26 Feb - 09:51:14 10° SW 09:55:49 42° NW 10:00:26 10° NNE daylight
26 Feb - 21:57:44 10° NW 22:01:30 90° SW 22:05:15 10° SE visible
27 Feb - 08:16:01 10° S 08:20:13 30° SE 08:24:30 10° ENE daylight
27 Feb - 09:56:57 10° WSW 10:00:40 22° NW 10:04:25 10° N daylight
27 Feb - 22:02:53 10° WNW 22:06:22 36° SW 22:09:51 10° SSE visible
28 Feb - 08:20:24 10° SSW 08:25:06 60° SE 08:29:55 10° NE daylight
28 Feb - 10:04:10 10° WNW 10:05:32 11° NW 10:06:54 10° NW daylight
28 Feb - 20:28:04 10° N 20:30:59 21° NE 20:33:53 10° ESE daylight
28 Feb - 22:08:46 10° W 22:11:17 17° SW 22:13:48 10° S visible
